Flag for Germany Weather past 2 weeks in Hannover, Lower Saxony, Germany

Now
52 °F

Clear.


Feels Like: 47 °F
Forecast: 42 / 62 °F
Wind: 13 mph from South

Location: Hannover

Current Time: May 28, 2015 at 4:10:06 AM

Latest Report: May 28, 2015 at 3:20 AM


Visibility: 10 mi

Pressure: 29.98 "Hg

Humidity: 67%

Dew point: 41 °F

Location of HannoverLocation

Historic Weather in Hannover — Graph

°F

Hannover temperature yesterday

Maximum temperature yesterday: 59 °F (at 5:20 PM)
Minimum temperature yesterday: 41 °F (at 3:20 AM)
Average temperature yesterday: 52 °F

Past Weeks' High & Low Weather Summary

 TemperatureHumidityPressure
High66 °F (May 18, 3:20 PM)100% (May 15, 12:50 AM)30.30 "Hg (May 15, 12:50 AM)
Low34 °F (May 15, 4:50 AM)42% (May 19, 2:20 PM)29.59 "Hg (May 18, 8:50 PM)
Average52 °F72%30.04 "Hg
* Reported May 13 2:20 AM — May 28 2:50 AM, Hannover, Weather by CustomWeather, © 2015

Note: Actual official high and low records may vary slightly from our data, if they occured in-between our weather recording intervals... More about our weather records

Advertising

Hannover weather history for previous 24 hours

 ConditionsComfort  
Time TempWeatherWind HumidityBarometerVisibility
2:50 AM
Thu, May 28
52 °FClear.9 mph67%30.01 "Hg10 mi
2:20 AM50 °FClear.10 mph71%30.01 "Hg10 mi
1:50 AM50 °FClear.9 mph71%30.01 "Hg10 mi
1:20 AM52 °FClear.8 mph67%30.04 "Hg10 mi
12:50 AM52 °FClear.10 mph67%30.04 "Hg10 mi
12:20 AM52 °FClear.10 mph67%30.04 "Hg10 mi
11:50 PM
Wed, May 27
52 °FClear.9 mph67%30.07 "Hg10 mi
11:20 PM52 °FClear.10 mph67%30.07 "Hg10 mi
10:50 PM54 °FClear.8 mph67%30.09 "Hg10 mi
10:20 PM54 °FSunny.7 mph67%30.09 "Hg10 mi
9:50 PM54 °FSunny.5 mph67%30.09 "Hg10 mi
9:20 PM54 °FSunny.5 mph67%30.09 "Hg10 mi
8:50 PM55 °FSunny.5 mph63%30.09 "Hg10 mi
8:20 PM55 °FBroken clouds.3 mph67%30.12 "HgN/A
7:50 PM55 °FBroken clouds.5 mph63%30.12 "HgN/A
7:20 PM57 °FPartly sunny.7 mph59%30.12 "HgN/A
6:50 PM57 °FPartly sunny.8 mph59%30.12 "HgN/A
6:20 PM57 °FPartly sunny.10 mph55%30.15 "HgN/A
5:50 PM57 °FPartly sunny.9 mph59%30.15 "HgN/A
5:20 PM59 °FPartly sunny.6 mph55%30.15 "HgN/A
4:50 PM57 °FPartly sunny.6 mph59%30.15 "HgN/A
4:20 PM57 °FPartly sunny.7 mph59%30.18 "HgN/A
3:50 PM55 °FPartly sunny.10 mph63%30.18 "HgN/A
3:20 PM57 °FPartly sunny.12 mph55%30.18 "HgN/A
2:50 PM57 °FPartly sunny.13 mph59%30.18 "HgN/A
2:20 PM57 °FPartly sunny.13 mph59%30.18 "HgN/A
1:50 PM57 °FPartly sunny.12 mph55%30.18 "HgN/A
1:20 PM55 °FBroken clouds.10 mph59%30.18 "HgN/A
12:50 PM57 °FScattered clouds.13 mph63%30.18 "HgN/A
12:20 PM57 °FScattered clouds.16 mph51%30.18 "HgN/A
11:50 AM55 °FScattered clouds.15 mph55%30.18 "HgN/A
11:20 AM55 °FScattered clouds.14 mph59%30.18 "HgN/A
10:50 AM54 °FScattered clouds.18 mph58%30.21 "HgN/A
10:20 AM55 °FScattered clouds.15 mph63%30.18 "HgN/A
9:50 AM52 °FScattered clouds.14 mph72%30.21 "HgN/A
9:20 AM54 °FPartly sunny.17 mph72%30.18 "HgN/A
8:50 AM52 °FScattered clouds.16 mph77%30.18 "HgN/A
8:20 AM50 °FScattered clouds.15 mph82%30.18 "HgN/A
7:50 AM50 °FPartly sunny.12 mph82%30.18 "HgN/A
7:20 AM48 °FPartly sunny.9 mph87%30.18 "HgN/A
6:50 AM46 °FPartly sunny.6 mph87%30.18 "HgN/A
6:20 AM45 °FPartly sunny.6 mph93%30.18 "HgN/A
5:20 AM43 °FPassing clouds.7 mph93%30.18 "HgN/A
4:50 AM43 °FPassing clouds.7 mph93%30.18 "HgN/A
4:20 AM43 °FPassing clouds.3 mph93%30.18 "HgN/A
Weather by CustomWeather, © 2015

See weather overviewHow to use our weather pages